Time,TemperatureF,DewpointF,PressureIn,WindDirection,WindDirectionDegrees,WindSpeedMPH,WindSpeedGustMPH,Humidity,HourlyPrecipIn,Conditions,Clouds,dailyrainin,SoftwareType,DateUTC
2015-03-04 00:05:00,43.8,39.0,30.03,SE,146,0.0,0.0,84,0.00,,,0.00,weatherlink.com 1.10,2015-03-04 08:05:00,
2015-03-04 00:20:00,43.5,40.0,30.03,SE,146,0.0,0.0,86,0.00,,,0.00,weatherlink.com 1.10,2015-03-04 08:20:00,
2015-03-04 00:35:00,43.3,39.0,30.03,SE,146,0.0,0.0,85,0.00,,,0.00,weatherlink.com 1.10,2015-03-04 08:35:00,
2015-03-04 00:50:00,43.6,39.0,30.04,SE,146,0.0,0.0,83,0.00,,,0.00,weatherlink.com 1.10,2015-03-04 08:50:00,
2015-03-04 01:05:00,43.7,38.0,30.04,SE,145,0.0,0.0,81,0.00,,,0.00,weatherlink.com 1.10,2015-03-04 09:05:00,
2015-03-04 01:20:00,44.6,38.0,30.04,SSE,147,0.0,0.0,78,0.00,,,0.00,weatherlink.com 1.10,2015-03-04 09:20:00,
2015-03-04 01:35:00,45.4,38.0,30.03,SSE,147,0.0,0.0,74,0.00,,,0.00,weatherlink.com 1.10,2015-03-04 09:35:00,
2015-03-04 01:50:00,46.5,38.0,30.04,SSE,153,0.0,0.0,72,0.00,,,0.00,weatherlink.com 1.10,2015-03-04 09:50:00,
2015-03-04 02:06:00,46.3,38.0,30.04,SSE,153,0.0,0.0,73,0.00,,,0.00,weatherlink.com 1.10,2015-03-04 10:06:00,
2015-03-04 02:20:00,45.6,37.0,30.04,SSE,153,0.0,0.0,73,0.00,,,0.00,weatherlink.com 1.10,2015-03-04 10:20:00,
2015-03-04 02:35:00,45.7,37.0,30.03,SSE,153,0.0,0.0,72,0.00,,,0.00,weatherlink.com 1.10,2015-03-04 10:35:00,
2015-03-04 02:50:00,44.8,38.0,30.03,SSE,153,0.0,0.0,77,0.00,,,0.00,weatherlink.com 1.10,2015-03-04 10:50:00,
2015-03-04 03:05:00,43.9,37.0,30.03,SSE,153,0.0,0.0,77,0.00,,,0.00,weatherlink.com 1.10,2015-03-04 11:05:00,
2015-03-04 03:20:00,43.6,37.0,30.03,SSE,153,0.0,0.0,77,0.00,,,0.00,weatherlink.com 1.10,2015-03-04 11:20:00,
2015-03-04 03:35:00,43.8,36.0,30.03,SSE,153,0.0,0.0,74,0.00,,,0.00,weatherlink.com 1.10,2015-03-04 11:35:00,
2015-03-04 03:50:00,44.1,36.0,30.03,SSE,153,0.0,0.0,74,0.00,,,0.00,weatherlink.com 1.10,2015-03-04 11:50:00,
2015-03-04 04:05:00,44.3,36.0,30.03,SSE,153,0.0,0.0,72,0.00,,,0.00,weatherlink.com 1.10,2015-03-04 12:05:00,
2015-03-04 04:20:00,44.1,36.0,30.04,SSE,153,0.0,0.0,73,0.00,,,0.00,weatherlink.com 1.10,2015-03-04 12:20:00,
2015-03-04 04:35:00,43.9,35.0,30.04,SSE,153,0.0,0.0,72,0.00,,,0.00,weatherlink.com 1.10,2015-03-04 12:35:00,
2015-03-04 04:50:00,43.3,35.0,30.05,SSE,153,0.0,0.0,73,0.00,,,0.00,weatherlink.com 1.10,2015-03-04 12:50:00,
2015-03-04 05:06:00,42.7,35.0,30.05,SSE,153,0.0,0.0,73,0.00,,,0.00,weatherlink.com 1.10,2015-03-04 13:06:00,
2015-03-04 05:21:00,42.5,35.0,30.05,SSE,153,0.0,0.0,74,0.00,,,0.00,weatherlink.com 1.10,2015-03-04 13:21:00,
2015-03-04 05:36:00,42.4,35.0,30.05,SSE,153,0.0,0.0,74,0.00,,,0.00,weatherlink.com 1.10,2015-03-04 13:36:00,
2015-03-04 05:51:00,42.2,35.0,30.06,SSE,153,0.0,0.0,75,0.00,,,0.00,weatherlink.com 1.10,2015-03-04 13:51:00,
2015-03-04 06:06:00,42.4,35.0,30.06,SSE,153,0.0,0.0,75,0.00,,,0.00,weatherlink.com 1.10,2015-03-04 14:06:00,
2015-03-04 06:21:00,43.0,35.0,30.06,SSE,153,0.0,0.0,74,0.00,,,0.00,weatherlink.com 1.10,2015-03-04 14:21:00,
2015-03-04 06:36:00,43.1,35.0,30.07,SSE,153,0.0,0.0,73,0.00,,,0.00,weatherlink.com 1.10,2015-03-04 14:36:00,
2015-03-04 06:51:00,43.2,36.0,30.07,SSE,153,0.0,0.0,75,0.00,,,0.00,weatherlink.com 1.10,2015-03-04 14:51:00,
2015-03-04 07:06:00,43.6,35.0,30.07,SSE,153,0.0,0.0,73,0.00,,,0.00,weatherlink.com 1.10,2015-03-04 15:06:00,
2015-03-04 07:21:00,44.3,36.0,30.08,SSE,153,0.0,0.0,72,0.00,,,0.00,weatherlink.com 1.10,2015-03-04 15:21:00,
2015-03-04 07:36:00,45.2,37.0,30.09,SSE,153,0.0,0.0,72,0.00,,,0.00,weatherlink.com 1.10,2015-03-04 15:36:00,
2015-03-04 07:51:00,47.2,39.0,30.10,SSE,153,0.0,0.0,73,0.00,,,0.00,weatherlink.com 1.10,2015-03-04 15:51:00,
2015-03-04 08:06:00,47.5,39.0,30.11,SSE,153,0.0,0.0,73,0.00,,,0.00,weatherlink.com 1.10,2015-03-04 16:06:00,
2015-03-04 08:21:00,49.2,42.0,30.12,SSE,153,0.0,0.0,75,0.00,,,0.00,weatherlink.com 1.10,2015-03-04 16:21:00,
2015-03-04 08:36:00,51.2,41.0,30.13,SE,141,1.0,1.0,69,0.00,,,0.00,weatherlink.com 1.10,2015-03-04 16:36:00,
2015-03-04 08:51:00,52.7,41.0,30.13,SSE,153,0.0,0.0,65,0.00,,,0.00,weatherlink.com 1.10,2015-03-04 16:51:00,